Temp
-12 -12 -10 -10 -10 -10 -11 -11 -10 -10 -10 -9 -8 -8 -7 -5 -5 -6 -9 -8 -8 -8 -8 -7 -6 -7 -6 -6 -6 -6 -6 -7 -7 -7 -7 -7 -6 -6 -6 -6 -7 -7 -8 -7 -6 -6 -4 -6 -5 -5 -6 -6 -6 -6
-12 -11 -10 -10 -10 -10 -11 -11 -11 -10 -9 -8 -8 -8 -7 -7 -7 -7 -8 -8 -8 -9 -8 -7 -6 -6 -6 -6 -6 -5 -5 -6 -7 -7 -7 -6 -6 -6 -6 -6 -6 -7 -7 -6 -6 -5 -5 -5 -6 -6 -7 -7 -7 -7
-11 -10 -10 -10 -10 -11 -11 -11 -10 -9 -9 -9 -8 -8 -8 -8 -8 -8 -8 -8 -8 -7 -7 -6 -6 -6 -6 -6 -6 -5 -7 -7 -7 -7 -7 -7 -6 -6 -6 -7 -6 -6 -6 -6 -5 -7 -7 -7 -7 -6 -7 -8 -7 -8
-10 -10 -10 -10 -11 -11 -11 -10 -10 -9 -9 -9 -8 -7 -7 -7 -8 -7 -7 -7 -7 -7 -7 -7 -6 -6 -6 -7 -7 -7 -6 -7 -7 -8 -7 -7 -7 -7 -6 -6 -6 -6 -6 -6 -6 -7 -8 -8 -8 -8 -7 -8 -8 -8
-10 -10 -10 -11 -11 -11 -11 -10 -9 -10 -10 -10 -9 -9 -7 -7 -7 -7 -6 -6 -6 -6 -7 -8 -8 -7 -7 -7 -8 -8 -8 -7 -7 -7 -7 -7 -7 -7 -7 -7 -7 -7 -6 -7 -7 -7 -7 -8 -9 -9 -8 -8 -8 -9
-10 -10 -10 -11 -11 -11 -11 -10 -10 -10 -10 -10 -9 -9 -9 -8 -7 -7 -7 -8 -8 -7 -7 -8 -8 -8 -8 -8 -8 -8 -8 -8 -8 -8 -8 -8 -7 -7 -6 -7 -7 -7 -7 -7 -7 -7 -8 -8 -8 -8 -9 -9 -9 -9
-10 -10 -11 -11 -11 -11 -11 -10 -11 -10 -10 -10 -10 -9 -9 -9 -9 -9 -9 -9 -9 -8 -8 -9 -8 -8 -8 -8 -8 -8 -8 -8 -8 -8 -8 -7 -7 -7 -7 -7 -8 -7 -8 -8 -8 -8 -8 -8 -8 -9 -9 -9 -9 -9
-10 -11 -11 -11 -11 -11 -11 -11 -11 -11 -11 -11 -10 -10 -9 -9 -9 -9 -9 -9 -9 -9 -8 -10 -9 -9 -9 -9 -9 -9 -9 -8 -9 -9 -8 -8 -8 -8 -8 -8 -8 -7 -7 -8 -8 -8 -8 -8 -8 -9 -9 -9 -10 -10
-10 -11 -11 -11 -11 -11 -11 -11 -11 -11 -11 -11 -11 -10 -9 -9 -10 -10 -9 -9 -9 -9 -10 -10 -10 -10 -10 -10 -9 -9 -9 -9 -10 -9 -9 -8 -8 -8 -9 -9 -10 -8 -9 -7 -8 -8 -8 -8 -8 -9 -9 -10 -10 -9
-10 -11 -11 -11 -11 -12 -12 -11 -11 -12 -12 -11 -11 -11 -10 -11 -10 -10 -10 -10 -9 -8 -9 -10 -9 -10 -9 -9 -9 -9 -9 -9 -9 -9 -9 -9 -9 -10 -10 -10 -10 -10 -8 -8 -8 -8 -8 -8 -9 -9 -9 -9 -10 -10
-10 -11 -11 -11 -11 -11 -12 -12 -12 -11 -11 -11 -11 -10 -10 -11 -10 -10 -10 -10 -9 -10 -10 -10 -9 -9 -10 -8 -9 -9 -9 -9 -9 -9 -9 -9 -9 -10 -10 -10 -9 -8 -8 -8 -8 -8 -8 -8 -9 -9 -9 -10 -10 -10
-11 -10 -11 -11 -11 -11 -12 -12 -12 -12 -11 -10 -10 -10 -10 -9 -9 -9 -9 -10 -10 -10 -10 -10 -10 -9 -10 -9 -8 -9 -9 -9 -9 -9 -9 -9 -9 -9 -9 -8 -8 -8 -8 -8 -8 -8 -8 -9 -9 -9 -9 -10 -10 -10
-10 -11 -11 -11 -11 -11 -11 -11 -12 -12 -12 -11 -10 -9 -9 -9 -9 -9 -9 -10 -11 -10 -10 -10 -10 -9 -9 -8 -8 -8 -9 -10 -10 -8 -9 -8 -8 -8 -8 -8 -8 -8 -8 -8 -8 -9 -9 -9 -9 -10 -10 -10 -10 -10
-11 -10 -11 -10 -11 -11 -11 -11 -11 -11 -10 -10 -9 -9 -10 -11 -10 -10 -9 -10 -9 -9 -10 -10 -9 -8 -8 -8 -9 -10 -10 -10 -9 -9 -9 -8 -8 -8 -8 -8 -8 -8 -8 -8 -8 -8 -9 -9 -10 -10 -10 -10 -10 -10
-11 -11 -11 -10 -10 -11 -10 -11 -11 -10 -9 -9 -10 -10 -10 -9 -10 -9 -9 -8 -10 -10 -10 -9 -9 -8 -8 -8 -9 -9 -10 -10 -9 -8 -8 -8 -8 -8 -8 -8 -8 -8 -8 -8 -9 -9 -9 -10 -10 -10 -10 -10 -10 -11
-11 -10 -10 -10 -10 -10 -10 -10 -10 -9 -9 -10 -11 -11 -10 -9 -10 -10 -10 -10 -10 -10 -9 -8 -8 -8 -9 -10 -10 -10 -9 -8 -9 -8 -8 -8 -8 -8 -8 -8 -8 -8 -8 -9 -9 -10 -9 -9 -10 -10 -10 -10 -11 -11
-10 -10 -11 -10 -11 -10 -10 -10 -9 -8 -9 -9 -11 -9 -9 -9 -9 -10 -10 -9 -9 -9 -8 -8 -8 -9 -10 -10 -9 -9 -9 -9 -9 -8 -8 -8 -8 -8 -8 -9 -9 -9 -9 -9 -10 -9 -9 -10 -10 -10 -10 -11 -11 -11
-12 -10 -10 -11 -11 -10 -10 -10 -9 -9 -9 -9 -9 -9 -8 -8 -8 -8 -8 -8 -8 -8 -8 -8 -9 -10 -10 -10 -10 -9 -9 -9 -8 -8 -8 -8 -8 -9 -9 -9 -9 -9 -9 -9 -10 -9 -10 -10 -10 -10 -11 -11 -11 -12
-12 -11 -11 -11 -11 -11 -11 -11 -10 -9 -9 -9 -9 -9 -8 -8 -8 -8 -8 -8 -8 -8 -8 -9 -10 -10 -10 -10 -10 -9 -9 -9 -9 -9 -9 -9 -9 -9 -9 -9 -9 -9 -10 -10 -9 -10 -10 -10 -10 -11 -11 -11 -12 -12
-13 -13 -12 -12 -11 -11 -11 -11 -10 -10 -10 -10 -9 -9 -9 -9 -9 -9 -9 -9 -9 -9 -9 -9 -10 -10 -10 -10 -10 -10 -9 -9 -9 -9 -9 -9 -9 -9 -9 -9 -9 -10 -10 -10 -10 -10 -10 -10 -11 -11 -11 -11 -12 -12
-13 -13 -13 -12 -12 -12 -11 -11 -11 -10 -10 -10 -10 -10 -10 -10 -9 -9 -9 -9 -9 -9 -10 -10 -10 -10 -10 -10 -10 -10 -10 -9 -9 -9 -9 -9 -9 -10 -10 -10 -10 -10 -10 -10 -10 -10 -10 -11 -11 -11 -11 -12 -12 -12
-14 -13 -13 -12 -12 -12 -11 -11 -11 -10 -10 -10 -10 -10 -10 -10 -10 -10 -10 -10 -10 -10 -10 -10 -10 -10 -10 -10 -10 -10 -10 -10 -10 -10 -10 -10 -10 -10 -10 -10 -10 -10 -10 -10 -10 -10 -11 -11 -11 -11 -12 -12 -12 -13
-14 -14 -13 -13 -12 -12 -12 -11 -11 -11 -11 -10 -11 -11 -11 -10 -10 -10 -10 -10 -10 -10 -10 -10 -11 -11 -11 -10 -10 -10 -10 -10 -10 -10 -10 -10 -10 -10 -10 -10 -10 -10 -10 -10 -10 -11 -11 -11 -11 -12 -12 -12 -13 -13
-14 -13 -13 -12 -12 -12 -12 -12 -12 -12 -11 -12 -11 -11 -11 -11 -10 -11 -10 -10 -10 -10 -10 -10 -10 -10 -11 -10 -10 -10 -11 -10 -10 -10 -10 -10 -10 -10 -10 -10 -10 -11 -10 -10 -11 -11 -11 -11 -12 -12 -12 -13 -13 -13
-13 -13 -13 -12 -12 -12 -12 -12 -12 -12 -12 -13 -12 -11 -11 -11 -11 -11 -10 -10 -10 -10 -10 -10 -10 -10 -10 -10 -10 -10 -10 -10 -11 -11 -11 -11 -11 -11 -11 -11 -11 -11 -10 -11 -11 -11 -12 -12 -12 -12 -13 -13 -13 -14
-12 -12 -12 -12 -12 -12 -12 -12 -12 -11 -11 -11 -11 -11 -11 -11 -11 -11 -12 -10 -10 -11 -11 -11 -10 -10 -10 -10 -10 -11 -11 -11 -11 -11 -11 -11 -11 -11 -11 -11 -11 -11 -11 -11 -11 -12 -12 -12 -13 -13 -13 -13 -14 -14
-13 -12 -12 -12 -12 -12 -12 -12 -12 -12 -11 -11 -11 -11 -11 -11 -12 -11 -11 -11 -11 -11 -11 -11 -11 -11 -10 -10 -10 -10 -11 -11 -11 -11 -11 -11 -11 -11 -11 -11 -11 -11 -12 -12 -12 -12 -12 -13 -13 -13 -14 -14 -14 -15
-13 -13 -12 -12 -12 -12 -12 -12 -12 -12 -12 -11 -11 -11 -12 -12 -12 -11 -12 -12 -12 -12 -12 -12 -11 -11 -11 -11 -11 -11 -11 -12 -12 -11 -12 -12 -12 -12 -12 -12 -12 -12 -12 -12 -12 -13 -13 -13 -14 -14 -14 -14 -15 -15
-13 -13 -13 -13 -13 -13 -12 -12 -12 -12 -12 -12 -12 -12 -12 -12 -12 -12 -12 -13 -12 -12 -12 -12 -12 -12 -11 -11 -11 -11 -11 -12 -12 -12 -12 -12 -12 -12 -12 -13 -13 -13 -13 -13 -13 -13 -14 -14 -15 -15 -15 -15 -16 -16
-13 -14 -13 -13 -13 -13 -13 -12 -12 -12 -12 -12 -12 -12 -12 -12 -12 -12 -13 -13 -13 -13 -13 -12 -12 -12 -12 -12 -12 -12 -12 -12 -12 -12 -12 -12 -13 -13 -13 -13 -13 -13 -13 -14 -14 -14 -15 -15 -15 -15 -16 -16 -17 -17
-13 -13 -13 -13 -13 -12 -12 -12 -13 -13 -12 -12 -12 -12 -13 -13 -13 -13 -13 -13 -13 -13 -12 -12 -12 -12 -12 -12 -12 -12 -12 -12 -12 -13 -13 -13 -13 -13 -14 -14 -14 -14 -14 -15 -15 -15 -15 -16 -16 -16 -17 -17 -17 -18
-13 -13 -13 -12 -12 -12 -12 -12 -12 -12 -12 -12 -12 -13 -13 -13 -13 -13 -13 -12 -12 -12 -12 -12 -12 -12 -12 -12 -12 -13 -13 -13 -13 -13 -13 -14 -14 -14 -14 -14 -15 -15 -15 -16 -16 -16 -16 -17 -17 -17 -18 -18 -18 -18
-13 -13 -14 -13 -13 -13 -13 -13 -13 -13 -13 -13 -13 -13 -13 -13 -13 -13 -13 -13 -13 -13 -13 -13 -13 -13 -13 -13 -13 -13 -13 -14 -14 -14 -14 -15 -15 -15 -15 -16 -16 -16 -16 -17 -17 -17 -17 -17 -18 -18 -18 -19 -19 -19
Height
2817 2816 2815 2816 2817 2817 2815 2811 2810 2807 2803 2800 2795 2788 2778 2766 2767 2780 2807 2840 2861 2878 2892 2905 2909 2915 2924 2930 2932 2938 2951 2956 2962 2968 2972 2974 2977 2981 2986 2990 2992 2997 3006 3011 3016 3018 3014 3010 3014 3018 3017 3015 3018 3020
2815 2814 2815 2816 2816 2815 2811 2810 2808 2805 2802 2798 2792 2789 2786 2782 2783 2795 2817 2842 2869 2884 2889 2896 2900 2911 2918 2924 2928 2934 2942 2941 2949 2959 2966 2971 2973 2977 2980 2987 2991 2997 2998 3004 3009 3011 3008 3009 3009 3011 3014 3013 3015 3017
2813 2814 2816 2816 2816 2814 2812 2811 2808 2806 2803 2800 2796 2794 2796 2800 2807 2814 2827 2843 2859 2873 2884 2893 2897 2903 2908 2915 2921 2928 2935 2942 2946 2954 2958 2961 2966 2972 2976 2981 2986 2990 2996 3000 3004 3005 3005 3006 3006 3009 3011 3011 3014 3013
2812 2814 2816 2816 2816 2815 2814 2814 2812 2810 2808 2805 2802 2803 2806 2810 2814 2829 2840 2848 2862 2870 2882 2887 2891 2895 2906 2913 2918 2927 2934 2940 2947 2950 2956 2963 2967 2971 2976 2977 2984 2988 2993 2997 3000 3001 3002 3003 3005 3006 3009 3008 3011 3010
2813 2816 2817 2818 2817 2817 2817 2816 2815 2814 2814 2813 2812 2811 2815 2819 2824 2832 2843 2850 2860 2871 2874 2885 2893 2901 2911 2916 2923 2928 2934 2940 2945 2952 2958 2962 2966 2972 2975 2979 2981 2986 2991 2994 2996 2998 3000 3002 3004 3005 3006 3007 3007 3007
2815 2818 2818 2819 2819 2820 2821 2819 2819 2820 2820 2821 2822 2822 2823 2827 2831 2837 2844 2853 2861 2866 2873 2885 2900 2907 2913 2919 2925 2930 2936 2943 2947 2952 2956 2961 2965 2971 2975 2979 2982 2983 2987 2989 2992 2994 2997 2999 3001 3002 3004 3004 3005 3005
2817 2819 2820 2821 2822 2823 2824 2824 2824 2826 2827 2828 2830 2832 2834 2835 2838 2841 2845 2854 2863 2872 2877 2889 2901 2911 2916 2922 2927 2932 2938 2944 2949 2953 2959 2963 2968 2971 2975 2977 2978 2981 2985 2988 2992 2995 2996 2998 3000 3000 3001 3002 3002 3002
2819 2821 2822 2823 2824 2826 2828 2829 2831 2833 2835 2835 2837 2839 2841 2844 2846 2851 2857 2861 2866 2874 2882 2889 2901 2910 2918 2922 2927 2934 2939 2944 2949 2954 2959 2962 2967 2971 2974 2975 2976 2980 2983 2986 2988 2991 2994 2995 2997 2998 2999 3000 3000 2999
2822 2824 2825 2826 2827 2829 2831 2834 2837 2840 2842 2844 2845 2847 2848 2851 2856 2860 2864 2868 2874 2879 2884 2896 2899 2907 2918 2924 2929 2936 2942 2946 2952 2957 2960 2966 2968 2970 2971 2974 2977 2979 2982 2983 2986 2989 2991 2993 2995 2996 2997 2997 2997 2995
2826 2828 2829 2830 2830 2832 2835 2838 2841 2844 2848 2851 2854 2856 2857 2860 2864 2868 2874 2879 2884 2887 2893 2900 2906 2910 2919 2924 2930 2938 2944 2949 2954 2959 2961 2964 2968 2972 2974 2976 2978 2979 2981 2984 2986 2988 2991 2992 2993 2994 2995 2995 2994 2993
2829 2831 2833 2834 2835 2836 2839 2842 2845 2848 2851 2855 2858 2860 2864 2868 2872 2876 2880 2885 2891 2896 2902 2907 2912 2914 2923 2928 2933 2940 2943 2948 2952 2956 2960 2964 2966 2970 2972 2974 2976 2978 2981 2984 2986 2988 2989 2990 2992 2992 2993 2992 2991 2990
2833 2836 2838 2840 2841 2843 2845 2847 2850 2853 2855 2859 2864 2868 2872 2876 2878 2882 2885 2889 2894 2899 2904 2910 2915 2919 2924 2930 2933 2939 2942 2947 2951 2955 2958 2961 2963 2967 2969 2973 2975 2978 2981 2983 2985 2986 2988 2989 2989 2990 2990 2990 2989 2988
2837 2841 2843 2845 2848 2850 2852 2854 2857 2860 2861 2867 2872 2875 2877 2880 2882 2885 2887 2890 2893 2898 2904 2910 2916 2921 2927 2930 2934 2937 2942 2946 2950 2953 2956 2958 2961 2964 2968 2972 2975 2978 2980 2982 2984 2986 2986 2988 2988 2989 2988 2987 2986 2984
2840 2844 2848 2851 2854 2857 2859 2860 2864 2867 2870 2872 2875 2877 2880 2882 2885 2888 2889 2890 2896 2902 2908 2914 2919 2923 2927 2931 2934 2938 2944 2947 2950 2953 2955 2956 2959 2964 2967 2971 2974 2976 2979 2981 2983 2984 2986 2986 2987 2986 2985 2985 2983 2982
2845 2849 2853 2857 2860 2863 2866 2869 2870 2873 2875 2876 2878 2880 2881 2883 2887 2890 2894 2898 2904 2909 2914 2918 2922 2926 2929 2933 2936 2940 2943 2946 2949 2951 2952 2955 2959 2963 2966 2969 2972 2975 2978 2980 2982 2983 2984 2984 2984 2984 2983 2982 2981 2980
2849 2853 2857 2861 2865 2868 2872 2874 2876 2878 2878 2878 2882 2887 2890 2892 2895 2899 2903 2906 2912 2915 2918 2922 2925 2930 2933 2935 2937 2940 2944 2947 2948 2950 2952 2956 2958 2961 2964 2968 2972 2975 2978 2979 2981 2981 2982 2982 2982 2982 2981 2980 2980 2978
2854 2857 2860 2865 2870 2873 2877 2880 2881 2882 2883 2888 2891 2892 2896 2899 2902 2906 2910 2913 2916 2920 2922 2924 2927 2931 2935 2938 2941 2943 2944 2946 2948 2950 2953 2956 2960 2963 2966 2970 2973 2975 2976 2978 2978 2979 2980 2980 2980 2980 2979 2978 2977 2976
2858 2861 2864 2868 2872 2877 2881 2884 2887 2889 2892 2894 2897 2901 2904 2906 2910 2913 2915 2918 2921 2923 2925 2927 2931 2935 2937 2940 2942 2943 2944 2946 2949 2952 2955 2958 2961 2964 2967 2970 2971 2973 2974 2975 2976 2977 2978 2978 2978 2978 2977 2976 2976 2974
2862 2865 2869 2872 2876 2880 2884 2890 2893 2895 2899 2901 2904 2907 2910 2913 2916 2918 2921 2923 2925 2927 2929 2931 2935 2939 2940 2940 2942 2944 2946 2948 2951 2953 2956 2958 2961 2964 2966 2968 2970 2971 2972 2973 2974 2975 2975 2976 2976 2975 2975 2974 2974 2972
2866 2869 2872 2876 2879 2883 2888 2893 2897 2900 2902 2906 2908 2911 2914 2917 2920 2922 2925 2927 2928 2930 2932 2935 2937 2939 2941 2943 2944 2945 2946 2949 2952 2954 2956 2959 2961 2963 2965 2967 2968 2969 2970 2970 2971 2972 2973 2973 2973 2973 2973 2972 2971 2970
2871 2874 2877 2881 2884 2888 2891 2895 2898 2902 2905 2908 2911 2914 2917 2919 2921 2924 2927 2929 2932 2933 2935 2937 2939 2941 2942 2944 2945 2946 2947 2948 2951 2954 2956 2958 2960 2962 2963 2965 2966 2967 2967 2967 2968 2969 2970 2970 2970 2970 2970 2969 2968 2967
2873 2878 2882 2885 2888 2892 2896 2898 2902 2904 2908 2911 2914 2915 2918 2920 2922 2925 2928 2930 2932 2934 2936 2937 2939 2940 2942 2944 2945 2946 2948 2949 2950 2952 2954 2956 2958 2960 2961 2962 2963 2963 2964 2965 2965 2966 2967 2967 2967 2967 2967 2966 2965 2964
2878 2881 2885 2888 2892 2894 2898 2900 2903 2906 2908 2911 2914 2916 2918 2921 2923 2926 2927 2930 2932 2934 2935 2936 2937 2939 2940 2941 2943 2945 2946 2948 2950 2952 2954 2955 2957 2958 2958 2959 2960 2960 2960 2961 2963 2963 2963 2964 2964 2964 2963 2963 2962 2960
2881 2885 2889 2891 2893 2895 2898 2899 2902 2905 2907 2910 2913 2915 2918 2920 2923 2925 2927 2928 2930 2931 2932 2933 2935 2936 2938 2939 2941 2943 2944 2946 2948 2950 2951 2953 2954 2955 2955 2956 2956 2956 2957 2958 2959 2960 2960 2960 2960 2960 2959 2959 2958 2957
2889 2891 2892 2893 2895 2897 2899 2901 2903 2905 2906 2909 2912 2915 2918 2920 2922 2924 2925 2926 2927 2928 2929 2930 2931 2933 2934 2936 2937 2939 2941 2942 2945 2946 2948 2948 2950 2950 2951 2952 2952 2952 2953 2954 2955 2956 2956 2956 2956 2956 2955 2955 2954 2953
2889 2891 2893 2893 2895 2898 2900 2902 2904 2906 2908 2910 2913 2916 2918 2919 2921 2922 2921 2921 2923 2924 2925 2926 2928 2929 2930 2931 2933 2935 2936 2937 2939 2940 2942 2943 2945 2945 2946 2947 2948 2948 2949 2950 2950 2951 2951 2951 2951 2951 2951 2950 2950 2949
2892 2892 2893 2894 2896 2897 2899 2901 2903 2905 2907 2909 2911 2913 2915 2916 2917 2917 2918 2919 2920 2920 2921 2922 2923 2923 2924 2925 2927 2929 2930 2931 2932 2935 2937 2938 2939 2940 2942 2942 2943 2944 2944 2945 2945 2946 2946 2946 2946 2946 2946 2945 2945 2944
2893 2893 2894 2895 2895 2897 2898 2900 2902 2903 2905 2907 2909 2910 2912 2912 2913 2914 2915 2916 2917 2918 2918 2918 2918 2918 2919 2919 2921 2923 2924 2926 2928 2929 2932 2933 2934 2936 2937 2937 2938 2938 2938 2939 2940 2940 2940 2941 2941 2941 2940 2940 2940 2939
2893 2892 2892 2893 2894 2895 2897 2898 2899 2901 2903 2904 2906 2906 2907 2908 2910 2910 2911 2912 2914 2915 2915 2915 2915 2915 2915 2916 2916 2918 2919 2921 2923 2924 2926 2927 2929 2930 2931 2931 2931 2932 2932 2933 2934 2934 2934 2935 2935 2935 2934 2934 2934 2933
2893 2892 2892 2893 2894 2894 2895 2896 2898 2900 2901 2903 2905 2906 2906 2906 2907 2908 2910 2911 2912 2912 2912 2912 2912 2912 2912 2912 2913 2914 2914 2915 2917 2918 2919 2920 2922 2923 2924 2924 2924 2926 2926 2926 2927 2927 2928 2928 2928 2928 2928 2928 2928 2927
2892 2893 2893 2894 2894 2896 2897 2898 2899 2901 2902 2903 2903 2905 2905 2905 2906 2907 2907 2908 2908 2908 2908 2908 2908 2908 2908 2908 2909 2909 2910 2911 2911 2912 2912 2913 2915 2917 2917 2917 2918 2918 2919 2920 2920 2921 2921 2922 2922 2922 2922 2922 2922 2921
2890 2891 2892 2893 2895 2896 2896 2897 2898 2899 2900 2900 2901 2901 2902 2902 2903 2903 2903 2903 2903 2903 2903 2903 2903 2904 2903 2903 2904 2904 2905 2906 2906 2906 2907 2908 2909 2910 2911 2911 2912 2912 2912 2913 2914 2915 2915 2915 2916 2916 2916 2916 2916 2915
2887 2888 2889 2889 2890 2891 2893 2894 2894 2895 2895 2896 2897 2897 2897 2897 2897 2898 2898 2897 2897 2897 2897 2897 2898 2898 2898 2898 2898 2899 2899 2900 2901 2902 2902 2903 2904 2904 2904 2905 2905 2906 2906 2907 2907 2908 2908 2909 2909 2910 2910 2910 2909 2909
Wind_Speed
11 9 1 3 4 8 12 13 9 8 14 14 3 8 12 18 35 58 83 81 78 74 46 43 42 44 42 48 51 42 41 38 35 34 25 12 13 27 13 23 29 24 20 24 22 16 16 14 13 7 10 13 13 13
6 2 8 4 6 7 6 6 2 9 9 12 3 8 20 23 38 52 59 59 66 62 50 51 42 39 45 49 51 50 49 53 38 39 19 15 15 22 18 18 19 22 27 17 19 20 8 14 13 14 10 11 13 13
1 10 8 4 3 4 5 7 10 7 10 14 20 22 30 31 50 53 57 57 65 56 39 43 47 45 48 47 46 55 41 44 40 37 24 17 13 21 20 15 26 12 24 17 16 10 14 13 12 10 9 12 13 16
10 10 6 5 3 10 11 8 13 12 14 20 23 29 31 35 39 44 48 59 65 46 37 40 42 51 52 48 43 42 42 37 36 29 23 22 15 15 16 12 22 19 23 16 12 15 14 10 11 11 12 14 14 16
16 11 5 3 7 13 14 19 20 18 19 27 35 29 32 31 45 48 35 43 44 47 42 31 33 32 33 34 25 31 39 30 28 27 20 16 14 17 13 17 15 19 24 20 15 16 13 12 13 13 12 12 10 11
17 11 6 7 13 18 13 26 27 26 21 24 27 38 37 31 36 41 40 35 32 41 48 41 31 27 26 26 32 22 27 25 15 20 19 19 21 16 14 8 12 19 21 23 20 19 17 15 14 15 12 7 7 10
17 10 5 10 15 19 19 20 31 28 27 28 25 27 32 42 45 39 43 51 50 53 55 48 35 30 25 27 28 27 24 22 18 18 14 14 15 17 14 9 15 15 17 21 17 16 17 17 13 10 8 7 9 13
17 12 10 14 15 18 23 26 27 25 23 20 21 20 21 27 29 43 44 46 50 42 38 24 33 33 28 31 32 26 23 20 15 17 15 21 20 14 6 11 15 16 15 14 16 12 12 10 8 8 9 10 11 14
17 13 14 15 16 18 24 29 29 26 20 22 22 25 34 35 34 37 38 36 32 21 14 23 29 29 22 25 24 22 19 18 14 16 14 13 12 3 16 17 15 13 13 11 8 9 8 7 6 6 6 8 12 15
18 13 16 15 16 19 23 27 26 26 24 25 25 23 32 33 29 32 29 23 17 23 30 28 26 28 29 30 26 20 19 11 12 10 17 13 18 14 15 15 15 14 9 7 6 5 5 4 2 5 7 10 13 14
19 15 17 17 19 23 23 22 22 25 28 26 21 28 30 28 24 15 9 10 8 13 16 19 16 30 23 25 25 11 10 8 5 13 10 9 16 23 22 20 15 10 8 7 7 6 3 3 4 6 9 10 9 10
21 15 17 19 22 24 27 29 20 18 20 23 23 23 25 15 9 7 9 8 8 9 23 24 23 26 23 22 12 12 9 7 5 15 10 9 14 25 21 15 12 8 9 8 5 3 3 4 5 5 6 8 10 13
25 21 20 23 22 23 26 24 27 33 42 33 25 16 6 4 8 5 5 7 11 28 30 27 26 26 23 11 10 7 5 5 20 7 9 9 18 18 16 14 11 8 8 7 5 4 3 3 4 5 8 11 12 12
29 28 23 25 25 26 27 28 34 32 25 14 6 6 4 5 8 10 12 20 30 32 27 26 27 17 15 9 7 5 10 8 5 6 5 15 18 18 16 13 11 8 8 8 7 5 4 4 5 7 8 9 10 10
30 28 23 23 22 22 25 28 26 14 7 6 6 7 13 21 20 22 24 28 27 27 25 22 20 15 11 6 5 7 5 4 4 6 11 16 17 14 13 12 12 13 12 8 6 5 4 5 5 6 6 7 8 9
26 26 23 24 22 20 21 24 18 8 16 9 15 22 25 29 30 30 27 30 28 21 19 18 12 6 6 6 4 4 6 4 8 10 16 17 13 14 16 17 16 13 8 6 5 5 4 3 4 5 5 7 8 10
27 25 22 23 23 21 18 18 16 10 10 13 18 24 24 29 29 29 23 23 21 17 14 10 6 4 7 5 5 5 6 6 10 16 17 16 16 18 17 16 12 8 6 4 4 4 3 3 4 4 6 7 9 10
24 29 24 24 25 19 19 17 14 14 24 25 23 23 24 24 23 22 22 20 18 14 13 13 10 7 5 4 3 6 7 10 17 17 16 17 17 15 15 11 7 5 5 4 5 5 4 3 4 4 6 7 9 10
18 23 24 22 23 23 20 17 11 14 18 20 20 19 17 17 17 16 16 13 11 10 10 11 7 6 5 6 5 9 10 14 18 15 15 15 14 13 10 7 6 6 6 6 7 6 4 5 4 4 6 7 8 9
16 17 18 23 22 25 15 13 12 14 14 15 16 16 15 14 13 14 13 10 9 7 8 7 6 6 6 7 6 6 14 15 15 12 11 11 11 10 8 7 7 8 8 8 8 6 6 5 4 4 5 7 7 9
19 18 16 16 16 16 9 12 10 11 14 13 14 14 13 12 13 16 15 11 7 5 5 6 5 7 6 6 8 5 6 14 16 13 8 9 9 8 9 8 9 9 9 10 9 8 7 6 5 5 6 6 7 8
21 19 19 19 17 16 11 13 12 14 15 13 13 13 12 13 14 15 13 11 9 5 2 2 6 10 11 10 10 9 8 6 10 14 14 12 8 8 9 10 10 10 11 11 10 9 9 8 7 7 7 8 8 9
25 20 21 16 11 6 11 17 17 17 12 16 14 12 12 14 13 13 12 12 10 4 5 5 7 9 11 14 12 10 11 12 11 12 11 9 6 8 9 11 11 12 12 11 11 11 10 9 9 9 9 9 9 10
21 22 14 6 5 6 13 12 15 18 17 17 15 14 14 13 13 12 10 10 6 8 11 12 12 11 12 14 15 13 13 15 15 14 14 12 10 11 11 12 12 13 13 12 12 12 12 11 11 11 11 11 11 11
13 7 5 4 5 10 12 12 13 12 18 18 17 14 12 11 11 11 9 12 10 11 11 13 14 14 14 13 13 14 17 17 17 17 17 17 16 15 14 14 14 14 14 14 14 14 14 14 13 13 13 13 12 12
3 3 3 6 7 9 10 12 13 10 15 16 15 14 11 11 10 5 13 15 12 12 13 14 15 16 18 19 18 17 19 21 21 21 21 20 17 16 16 15 15 15 16 17 17 16 16 15 15 15 15 14 13 13
2 2 3 6 6 8 13 15 13 14 14 12 14 13 12 8 7 13 13 13 11 11 12 13 14 16 18 19 18 18 20 22 23 20 18 19 18 19 18 17 17 17 18 19 18 18 18 17 17 17 17 16 15 15
3 2 5 7 7 7 8 11 13 11 14 11 12 11 8 11 13 12 11 13 12 11 9 9 8 8 11 14 16 16 17 19 21 20 19 20 20 19 18 18 18 17 20 20 20 20 19 19 19 19 19 19 17 17
4 1 5 7 9 11 11 13 15 14 13 13 12 14 15 16 14 12 14 14 10 8 7 7 8 8 8 9 12 15 17 18 20 20 20 21 21 20 19 20 21 21 21 22 22 22 22 21 21 21 21 20 19 19
6 3 3 7 8 7 10 11 12 10 10 8 5 3 4 6 7 8 11 10 10 10 10 10 10 10 10 10 11 13 15 18 21 23 24 24 22 22 22 23 24 23 23 24 24 23 22 22 23 23 21 21 20 20
7 5 4 2 6 8 8 8 6 4 2 3 5 5 6 6 7 9 11 13 13 12 12 12 13 13 15 14 14 14 14 15 17 19 21 22 22 21 22 23 23 23 22 22 22 23 23 23 23 23 22 21 21 21
10 9 8 9 8 8 9 9 10 11 12 12 11 11 12 13 14 13 14 14 14 15 16 15 14 13 13 14 15 15 16 15 15 16 17 19 21 20 21 22 23 24 22 21 21 22 23 23 22 22 21 21 21 21
8 9 10 12 13 13 12 12 13 12 13 13 13 14 16 17 18 18 18 18 18 19 19 19 18 17 16 15 14 15 16 16 16 15 16 17 17 19 19 20 21 21 20 20 20 20 21 21 20 20 20 20 20 20
Wind_Direction
270 321 204 202 266 285 288 274 225 237 241 224 255 227 250 215 196 199 210 210 206 213 217 208 221 213 207 208 201 191 175 182 178 183 189 172 184 185 178 186 185 180 182 207 215 231 234 191 221 205 219 225 243 246
306 208 175 219 255 298 285 186 230 223 227 194 104 148 160 153 152 173 182 190 199 204 215 208 206 214 211 206 201 202 197 188 180 183 183 184 173 176 174 182 199 197 198 189 206 223 192 202 215 219 217 247 260 287
292 165 185 226 305 13 86 144 182 209 149 156 121 153 166 171 161 175 174 179 183 187 182 196 203 200 190 191 205 199 189 192 190 188 169 153 174 167 173 175 182 176 182 200 186 163 163 170 217 230 222 246 268 291
156 160 172 205 52 116 134 170 108 120 113 125 124 127 147 150 169 177 177 182 190 184 178 175 185 188 187 190 196 207 213 190 193 182 178 175 159 175 184 188 173 180 182 187 177 163 184 213 234 235 241 261 286 290
155 154 136 128 106 138 130 142 116 91 108 101 108 119 131 133 163 161 167 167 184 182 158 150 170 180 201 215 173 186 181 154 157 163 149 155 156 174 144 152 164 188 186 180 175 201 210 202 212 257 280 288 291 292
155 138 118 112 125 132 139 119 103 95 115 106 115 125 133 138 152 160 156 154 156 159 155 123 131 139 154 163 178 152 174 173 157 149 159 161 159 157 157 164 175 208 194 190 185 189 193 206 231 276 294 280 284 288
151 132 127 131 135 144 137 128 105 97 97 93 103 119 130 133 138 142 139 134 136 140 122 113 115 129 147 139 133 139 147 146 162 158 175 177 182 181 161 182 205 202 194 196 204 218 227 246 260 258 252 269 281 295
147 137 115 133 133 149 143 133 117 108 108 97 114 114 109 134 125 130 133 138 141 136 128 110 117 123 138 143 143 157 169 168 153 150 135 165 156 132 133 166 173 174 180 185 206 214 215 223 239 249 259 275 290 300
130 122 124 127 137 134 148 142 133 124 120 102 94 100 121 122 119 122 133 133 146 137 109 133 136 123 140 146 160 153 163 150 136 131 150 146 129 105 155 149 153 157 167 180 176 184 203 218 237 252 269 285 294 305
147 125 128 116 128 143 143 147 143 140 135 125 122 121 115 109 118 140 124 103 110 121 125 136 146 139 153 156 152 151 151 129 119 140 133 141 119 126 143 152 156 170 161 173 183 193 195 201 248 281 292 297 301 305
151 139 122 116 114 132 135 137 144 158 156 149 136 126 126 124 118 97 83 90 97 107 120 135 153 151 156 162 145 135 132 119 110 157 141 155 170 159 169 182 176 173 175 182 196 190 177 230 270 297 301 302 304 308
158 142 127 113 116 122 126 116 107 128 147 161 155 130 124 100 81 87 109 101 105 110 123 141 145 148 146 146 129 129 114 120 133 149 148 169 182 180 182 172 174 190 192 190 182 206 240 278 299 292 293 301 308 310
166 152 133 122 119 117 125 114 112 115 112 111 112 110 87 79 78 74 111 115 133 142 146 151 151 144 142 123 118 108 96 132 140 143 152 186 183 181 183 186 191 194 190 188 203 218 224 235 264 286 303 309 313 317
153 143 136 130 122 118 113 116 128 116 112 116 86 91 102 86 94 103 136 135 141 143 146 141 139 137 131 112 105 98 124 115 127 148 187 174 178 174 180 191 204 201 189 192 187 187 221 253 281 298 308 315 319 323
145 146 153 137 133 128 125 132 132 125 84 78 68 57 89 108 120 115 118 125 127 132 132 131 132 129 104 103 97 112 115 118 148 174 192 172 168 184 201 201 178 172 170 172 190 219 242 266 293 307 312 319 325 327
151 149 154 157 147 142 141 148 148 108 60 63 88 102 103 112 113 114 117 119 121 125 132 129 111 102 76 93 87 84 122 137 183 179 166 164 170 164 155 157 160 161 167 187 211 231 238 273 298 305 321 333 334 333
157 165 156 161 159 152 146 146 135 86 71 109 113 117 123 122 123 124 123 127 122 120 107 94 86 79 100 77 96 136 173 175 166 162 159 157 156 154 157 157 157 160 176 202 228 219 236 273 298 317 334 338 338 339
157 175 171 164 167 172 172 154 127 101 120 121 120 118 123 125 126 123 125 125 121 109 99 84 85 92 84 103 159 180 174 166 155 151 156 161 162 163 164 166 175 192 206 236 227 222 244 277 298 325 334 337 339 343
169 154 171 161 164 162 162 169 136 126 130 130 131 131 133 135 138 138 135 130 127 115 100 91 96 115 127 135 144 165 151 157 160 156 155 161 165 168 171 183 202 225 233 248 226 232 251 269 290 317 330 335 339 343
145 171 156 151 159 164 147 150 157 144 139 145 157 154 144 145 158 169 164 163 154 128 97 94 117 141 149 151 122 155 185 169 164 164 165 171 177 188 203 219 236 241 245 244 230 238 251 263 286 309 317 326 334 342
153 153 165 164 156 155 128 139 138 160 164 162 173 174 173 171 168 173 176 182 190 152 122 121 152 177 181 182 184 144 146 196 202 195 186 195 204 211 226 240 236 244 254 237 236 244 250 258 274 287 296 310 324 333
163 150 154 165 172 175 175 174 170 166 170 177 188 192 194 194 192 189 194 204 220 204 207 220 216 222 221 212 199 196 189 167 183 192 196 196 211 236 241 237 245 260 247 236 242 247 250 256 265 276 286 296 308 319
155 157 153 143 137 128 167 176 175 180 180 186 183 182 194 196 195 195 203 217 227 230 236 235 231 226 224 218 213 214 210 203 196 197 205 213 234 251 246 243 257 258 242 242 247 248 252 256 264 271 278 286 298 308
130 116 117 117 115 134 157 170 181 185 186 175 190 194 191 192 197 206 218 232 244 241 242 234 235 236 231 225 227 230 224 217 218 219 224 234 256 265 254 251 262 255 243 246 250 251 254 257 262 268 274 282 290 298
124 108 108 116 121 158 167 163 156 169 178 175 184 185 188 194 209 224 239 254 249 241 237 238 238 233 231 232 232 228 231 233 232 236 241 250 260 260 257 258 264 256 247 248 251 252 254 258 261 266 272 279 286 295
80 116 144 159 160 171 173 184 196 181 176 182 192 196 201 213 222 217 237 253 245 244 239 237 237 238 242 245 245 239 240 241 243 243 246 250 250 251 256 260 265 258 249 249 252 254 256 260 262 266 271 277 283 290
59 135 167 178 183 185 191 195 196 198 199 202 204 204 213 211 210 235 244 240 240 238 240 243 246 246 246 246 245 238 240 240 239 241 237 241 245 251 257 263 265 260 251 252 255 258 259 261 264 268 271 274 278 284
347 232 214 208 209 207 206 204 203 205 211 217 216 206 196 199 228 243 233 227 223 227 237 244 251 257 248 241 236 236 234 234 236 241 244 249 254 258 262 265 267 263 254 253 255 259 260 261 264 267 270 273 275 278
322 257 210 208 205 210 213 207 214 219 223 221 211 225 222 227 232 234 226 212 218 235 248 256 254 258 259 250 242 237 234 235 238 243 247 250 253 257 260 262 262 262 260 258 257 258 261 262 264 266 269 274 277 279
319 23 138 173 178 184 193 192 179 162 150 161 176 197 214 219 221 217 212 226 249 264 273 275 272 265 264 261 253 245 242 242 244 245 247 250 252 255 257 258 261 264 262 259 258 260 262 264 265 268 272 275 276 278
254 248 238 168 116 145 149 153 149 147 184 254 272 274 269 255 247 248 253 261 268 271 274 275 273 268 260 256 256 255 253 251 251 250 249 251 253 251 253 258 262 266 266 264 262 261 263 265 267 270 272 274 277 278
249 242 235 229 224 228 229 233 247 259 264 262 260 258 259 261 262 265 266 269 269 270 273 273 271 263 259 257 256 254 254 254 254 257 260 258 257 257 256 259 263 266 266 263 261 262 264 267 269 271 273 275 277 279
260 254 247 242 242 241 242 246 251 255 257 260 260 264 267 270 269 270 272 272 272 271 268 265 262 261 262 262 261 257 253 251 251 254 256 258 260 262 263 264 266 268 267 264 264 265 267 269 271 272 274 275 275 277